When you browse on this site, cookies collect data to enhance your experience and personalize the content and advertising you see.
Visit our Privacy Policy to learn more. By continuing to use the site, you agree to this use of cookies and data.
  • In France
  • List of Countries
  • For 7 days
  • Water Temperature
  • Weather Map
  • Weather Widgets
  • user-avatar
    Login

    Hourly Weather Wantouqiao

    Today, 19 September, Thursday

    Time Temperature Precipitation Wind Pressure Humidity
    00:00 +20°C° 0 mm 0 mps 735 mmHg 86%
    01:00 +19°C° 0 mm 0 mps 735 mmHg 84%
    02:00 +19°C° 0 mm 0 mps 735 mmHg 85%
    03:00 +19°C° 0 mm 0 mps 735 mmHg 85%
    04:00 +19°C° 0 mm 0 mps 734 mmHg 86%
    05:00 +19°C° 0 mm 0 mps 735 mmHg 85%
    06:00 +19°C° 0 mm 0 mps 735 mmHg 84%
    07:00 +22°C° 0 mm 1 mps 735 mmHg 84%
    08:00 +23°C° 0 mm 1 mps 735 mmHg 79%
    09:00 +25°C° 0 mm 1 mps 735 mmHg 75%
    10:00 +26°C° 0 mm 1 mps 735 mmHg 70%
    11:00 +26°C° 0 mm 1 mps 734 mmHg 68%
    12:00 +27°C° 0 mm 1 mps 734 mmHg 66%
    13:00 +27°C° 0 mm 2 mps 733 mmHg 65%
    14:00 +27°C° 0 mm 1 mps 733 mmHg 67%
    15:00 +27°C° 0 mm 1 mps 732 mmHg 68%
    16:00 +27°C° 0 mm 1 mps 732 mmHg 70%
    17:00 +26°C° 0 mm 1 mps 732 mmHg 74%
    18:00 +24°C° 0 mm 1 mps 732 mmHg 79%
    19:00 +21°C° 0 mm 0 mps 732 mmHg 84%
    20:00 +20°C° 0 mm 0 mps 732 mmHg 85%
    21:00 +20°C° 0 mm 0 mps 733 mmHg 86%
    22:00 +20°C° 0 mm 0 mps 733 mmHg 87%
    23:00 +19°C° 0 mm 0 mps 733 mmHg 88%

    Tomorrow, 20 September, Friday

    Time Temperature Precipitation Wind Pressure Humidity
    00:00 +19°C° 0 mm 0 mps 733 mmHg 88%
    01:00 +19°C° 0 mm 0 mps 733 mmHg 89%
    02:00 +19°C° 0 mm 0 mps 732 mmHg 90%
    03:00 +18°C° 0 mm 0 mps 732 mmHg 91%
    04:00 +18°C° 0 mm 0 mps 732 mmHg 92%
    05:00 +19°C° 0 mm 0 mps 732 mmHg 88%
    06:00 +20°C° 0 mm 0 mps 733 mmHg 84%
    07:00 +21°C° 0 mm 0 mps 733 mmHg 80%
    08:00 +25°C° 0 mm 1 mps 733 mmHg 72%
    09:00 +26°C° 0 mm 1 mps 733 mmHg 64%
    10:00 +28°C° 0 mm 2 mps 733 mmHg 55%
    11:00 +29°C° 0 mm 3 mps 733 mmHg 54%
    12:00 +29°C° 0 mm 3 mps 732 mmHg 52%
    13:00 +30°C° 0 mm 3 mps 731 mmHg 50%
    14:00 +29°C° 0 mm 3 mps 731 mmHg 54%
    15:00 +28°C° 0 mm 3 mps 731 mmHg 57%
    16:00 +28°C° 0 mm 2 mps 730 mmHg 60%
    17:00 +26°C° 0 mm 2 mps 731 mmHg 64%
    18:00 +25°C° 0 mm 2 mps 731 mmHg 68%
    19:00 +23°C° 0 mm 2 mps 731 mmHg 72%
    20:00 +22°C° 0 mm 1 mps 732 mmHg 75%
    21:00 +22°C° 0 mm 1 mps 732 mmHg 77%
    22:00 +19°C° 0 mm 0 mps 733 mmHg 80%
    23:00 +19°C° 0 mm 0 mps 732 mmHg 81%

    Day after tomorrow, 21 September, Saturday

    Time Temperature Precipitation Wind Pressure Humidity
    00:00 +18°C° 0 mm 0 mps 732 mmHg 82%
    01:00 +18°C° 0 mm 0 mps 732 mmHg 83%
    02:00 +18°C° 0 mm 0 mps 732 mmHg 83%
    03:00 +18°C° 0 mm 0 mps 732 mmHg 83%
    04:00 +17°C° 0 mm 0 mps 732 mmHg 83%
    05:00 +18°C° 0 mm 0 mps 732 mmHg 80%
    06:00 +19°C° 0 mm 0 mps 732 mmHg 77%
    07:00 +20°C° 0 mm 0 mps 733 mmHg 74%
    08:00 +24°C° 0 mm 1 mps 733 mmHg 68%
    09:00 +25°C° 0 mm 2 mps 733 mmHg 61%
    10:00 +26°C° 0 mm 3 mps 733 mmHg 54%
    11:00 +27°C° 0 mm 3 mps 733 mmHg 54%
    12:00 +27°C° 0 mm 3 mps 732 mmHg 55%
    13:00 +27°C° 0 mm 4 mps 732 mmHg 55%
    14:00 +27°C° 0.1 mm 3 mps 732 mmHg 58%
    15:00 +27°C° 0.1 mm 3 mps 732 mmHg 60%
    16:00 +26°C° 0.1 mm 2 mps 731 mmHg 63%
    17:00 +25°C° 0 mm 2 mps 732 mmHg 67%
    18:00 +23°C° 0 mm 2 mps 732 mmHg 70%
    19:00 +22°C° 0 mm 1 mps 732 mmHg 73%
    20:00 +21°C° 0 mm 1 mps 732 mmHg 74%
    21:00 +20°C° 0 mm 1 mps 733 mmHg 74%
    22:00 +20°C° 0 mm 1 mps 733 mmHg 75%
    23:00 +19°C° 0 mm 1 mps 733 mmHg 75%

    22 September, Sunday

    Time Temperature Precipitation Wind Pressure Humidity
    00:00 +19°C° 0 mm 1 mps 733 mmHg 74%
    01:00 +19°C° 0 mm 1 mps 733 mmHg 74%
    02:00 +18°C° 0 mm 1 mps 733 mmHg 74%
    03:00 +18°C° 0 mm 1 mps 733 mmHg 73%
    04:00 +16°C° 0 mm 1 mps 733 mmHg 73%
    05:00 +16°C° 0 mm 0 mps 734 mmHg 71%
    06:00 +17°C° 0 mm 0 mps 735 mmHg 70%
    07:00 +18°C° 0 mm 0 mps 735 mmHg 68%
    08:00 +21°C° 0 mm 2 mps 735 mmHg 60%
    09:00 +24°C° 0 mm 3 mps 735 mmHg 51%
    10:00 +26°C° 0 mm 4 mps 735 mmHg 43%
    11:00 +27°C° 0 mm 4 mps 735 mmHg 41%
    12:00 +27°C° 0 mm 4 mps 735 mmHg 38%
    13:00 +28°C° 0 mm 5 mps 734 mmHg 36%
    14:00 +27°C° 0 mm 4 mps 734 mmHg 40%
    15:00 +27°C° 0 mm 3 mps 734 mmHg 44%
    16:00 +26°C° 0 mm 3 mps 733 mmHg 48%
    17:00 +24°C° 0 mm 2 mps 734 mmHg 53%
    18:00 +21°C° 0 mm 2 mps 734 mmHg 58%
    19:00 +20°C° 0 mm 1 mps 734 mmHg 63%
    20:00 +20°C° 0 mm 1 mps 734 mmHg 65%
    21:00 +19°C° 0 mm 1 mps 735 mmHg 68%
    22:00 +16°C° 0 mm 0 mps 735 mmHg 70%
    23:00 +16°C° 0 mm 0 mps 735 mmHg 70%

    23 September, Monday

    Time Temperature Precipitation Wind Pressure Humidity
    00:00 +16°C° 0 mm 0 mps 735 mmHg 70%
    01:00 +18°C° 0 mm 1 mps 735 mmHg 71%
    02:00 +16°C° 0 mm 1 mps 735 mmHg 71%
    03:00 +15°C° 0 mm 0 mps 735 mmHg 72%
    04:00 +15°C° 0 mm 0 mps 735 mmHg 73%
    05:00 +16°C° 0 mm 0 mps 735 mmHg 71%
    06:00 +17°C° 0 mm 0 mps 736 mmHg 69%
    07:00 +18°C° 0 mm 0 mps 737 mmHg 67%
    08:00 +22°C° 0 mm 1 mps 737 mmHg 59%
    09:00 +24°C° 0 mm 2 mps 737 mmHg 52%
    10:00 +26°C° 0 mm 2 mps 737 mmHg 44%
    11:00 +27°C° 0 mm 3 mps 736 mmHg 42%
    12:00 +28°C° 0 mm 3 mps 736 mmHg 40%
    13:00 +29°C° 0 mm 3 mps 735 mmHg 38%
    14:00 +28°C° 0 mm 3 mps 735 mmHg 41%
    15:00 +28°C° 0 mm 3 mps 735 mmHg 44%
    16:00 +27°C° 0 mm 2 mps 734 mmHg 47%
    17:00 +25°C° 0 mm 2 mps 735 mmHg 52%
    18:00 +23°C° 0 mm 1 mps 735 mmHg 56%
    19:00 +21°C° 0 mm 1 mps 735 mmHg 61%
    20:00 +20°C° 0 mm 1 mps 735 mmHg 64%
    21:00 +17°C° 0 mm 0 mps 735 mmHg 67%
    22:00 +17°C° 0 mm 0 mps 736 mmHg 69%
    23:00 +16°C° 0 mm 0 mps 736 mmHg 71%

    24 September, Tuesday

    Time Temperature Precipitation Wind Pressure Humidity
    00:00 +16°C° 0 mm 0 mps 735 mmHg 72%
    01:00 +18°C° 0 mm 1 mps 735 mmHg 73%
    02:00 +18°C° 0 mm 1 mps 735 mmHg 73%
    03:00 +16°C° 0 mm 1 mps 735 mmHg 73%
    04:00 +16°C° 0 mm 1 mps 735 mmHg 73%
    05:00 +16°C° 0 mm 0 mps 736 mmHg 71%
    06:00 +17°C° 0 mm 0 mps 736 mmHg 69%
    07:00 +18°C° 0 mm 0 mps 737 mmHg 67%
    08:00 +23°C° 0 mm 1 mps 737 mmHg 58%
    09:00 +25°C° 0 mm 1 mps 737 mmHg 50%
    10:00 +27°C° 0 mm 2 mps 737 mmHg 41%
    11:00 +28°C° 0 mm 2 mps 736 mmHg 39%
    12:00 +29°C° 0 mm 2 mps 736 mmHg 36%
    13:00 +29°C° 0 mm 2 mps 735 mmHg 34%
    14:00 +29°C° 0 mm 2 mps 735 mmHg 39%
    15:00 +28°C° 0 mm 2 mps 734 mmHg 43%
    16:00 +27°C° 0 mm 1 mps 734 mmHg 47%
    17:00 +26°C° 0 mm 1 mps 734 mmHg 48%
    18:00 +24°C° 0 mm 1 mps 735 mmHg 49%
    19:00 +23°C° 0 mm 1 mps 735 mmHg 50%
    20:00 +22°C° 0 mm 1 mps 735 mmHg 53%
    21:00 +19°C° 0 mm 0 mps 736 mmHg 56%
    22:00 +19°C° 0 mm 0 mps 736 mmHg 59%
    23:00 +18°C° 0 mm 0 mps 736 mmHg 61%
    Show more